TimeAKDT,TemperatureF,Dew PointF,Humidity,Sea Level PressureIn,VisibilityMPH,Wind Direction,Wind SpeedMPH,Gust SpeedMPH,PrecipitationIn,Events,Conditions,WindDirDegrees,DateUTC
12:53 AM,41.0,37.0,86,30.27,10.0,South,10.4,-,N/A,,Clear,170,2013-04-24 08:53:00
1:53 AM,41.0,37.9,89,30.28,10.0,South,16.1,-,N/A,,Clear,180,2013-04-24 09:53:00
2:23 AM,41.0,39.2,93,30.29,10.0,South,15.0,-,N/A,,Scattered Clouds,170,2013-04-24 10:23:00
2:53 AM,39.9,37.9,93,30.30,10.0,South,6.9,-,N/A,,Mostly Cloudy,190,2013-04-24 10:53:00
3:07 AM,39.2,37.4,93,30.29,10.0,South,3.5,-,N/A,,Mostly Cloudy,190,2013-04-24 11:07:00
3:18 AM,37.4,35.6,93,30.29,10.0,SSE,6.9,-,N/A,,Scattered Clouds,150,2013-04-24 11:18:00
3:33 AM,41.0,37.4,87,30.28,10.0,SSE,8.1,-,N/A,,Mostly Cloudy,150,2013-04-24 11:33:00
3:53 AM,39.9,37.0,89,30.28,10.0,SSE,8.1,-,N/A,,Scattered Clouds,150,2013-04-24 11:53:00
4:53 AM,39.9,37.0,89,30.27,10.0,SSE,13.8,-,N/A,,Clear,160,2013-04-24 12:53:00
5:53 AM,39.0,36.0,89,30.27,10.0,South,10.4,-,N/A,,Clear,170,2013-04-24 13:53:00
6:53 AM,36.0,34.0,93,30.27,10.0,NNW,5.8,-,N/A,,Partly Cloudy,340,2013-04-24 14:53:00
7:53 AM,37.9,36.0,93,30.27,10.0,SSE,8.1,-,N/A,,Scattered Clouds,160,2013-04-24 15:53:00
8:00 AM,39.2,37.4,93,30.27,10.0,SSE,8.1,-,N/A,,Mostly Cloudy,160,2013-04-24 16:00:00
8:36 AM,42.8,39.2,87,30.28,10.0,SSE,9.2,-,N/A,,Overcast,150,2013-04-24 16:36:00
8:53 AM,42.1,39.9,92,30.29,10.0,SSE,11.5,-,N/A,,Overcast,150,2013-04-24 16:53:00
9:26 AM,42.8,41.0,93,30.28,10.0,SE,5.8,-,N/A,,Overcast,130,2013-04-24 17:26:00
9:44 AM,39.2,37.4,93,30.28,4.0,East,6.9,-,N/A,,Overcast,80,2013-04-24 17:44:00
9:53 AM,39.9,37.9,93,30.29,4.0,ENE,4.6,-,N/A,,Overcast,60,2013-04-24 17:53:00
10:53 AM,43.0,39.9,89,30.28,10.0,ENE,6.9,-,N/A,,Overcast,60,2013-04-24 18:53:00
11:53 AM,44.1,39.9,85,30.27,10.0,ENE,5.8,-,N/A,,Overcast,70,2013-04-24 19:53:00
12:47 PM,48.2,41.0,76,30.26,10.0,SSE,15.0,-,N/A,,Overcast,160,2013-04-24 20:47:00
12:53 PM,48.0,41.0,77,30.26,10.0,South,13.8,-,N/A,,Mostly Cloudy,170,2013-04-24 20:53:00
1:46 PM,51.8,41.0,67,30.25,10.0,SSE,11.5,-,N/A,,Mostly Cloudy,160,2013-04-24 21:46:00
1:53 PM,51.1,42.1,71,30.25,10.0,South,13.8,-,N/A,,Mostly Cloudy,170,2013-04-24 21:53:00
2:53 PM,50.0,39.9,68,30.24,10.0,ENE,8.1,-,N/A,,Partly Cloudy,60,2013-04-24 22:53:00
3:53 PM,53.1,39.9,61,30.23,10.0,ENE,5.8,-,N/A,,Scattered Clouds,60,2013-04-24 23:53:00
4:53 PM,52.0,41.0,66,30.23,10.0,NE,6.9,-,N/A,,Partly Cloudy,50,2013-04-25 00:53:00
5:26 PM,53.6,42.8,67,30.21,10.0,ENE,5.8,-,N/A,,Mostly Cloudy,60,2013-04-25 01:26:00
5:34 PM,53.6,41.0,62,30.21,10.0,ENE,4.6,-,N/A,,Scattered Clouds,60,2013-04-25 01:34:00
5:53 PM,53.1,41.0,64,30.20,10.0,ENE,4.6,-,N/A,,Clear,70,2013-04-25 01:53:00
6:53 PM,52.0,41.0,66,30.19,10.0,North,12.7,-,N/A,,Partly Cloudy,360,2013-04-25 02:53:00
7:53 PM,46.9,39.0,74,30.17,10.0,North,11.5,-,N/A,,Clear,360,2013-04-25 03:53:00
8:53 PM,41.0,37.0,86,30.17,10.0,NNW,13.8,-,N/A,,Clear,340,2013-04-25 04:53:00
9:34 PM,39.2,35.6,87,30.16,10.0,WNW,4.6,-,N/A,,Scattered Clouds,300,2013-04-25 05:34:00
9:44 PM,39.2,35.6,87,30.16,10.0,WSW,4.6,-,N/A,,Mostly Cloudy,240,2013-04-25 05:44:00
9:53 PM,39.0,36.0,89,30.16,10.0,North,6.9,-,N/A,,Scattered Clouds,10,2013-04-25 05:53:00
10:21 PM,39.2,35.6,87,30.15,10.0,West,9.2,-,N/A,,Mostly Cloudy,270,2013-04-25 06:21:00
10:31 PM,37.4,35.6,93,30.15,10.0,West,8.1,-,N/A,,Mostly Cloudy,270,2013-04-25 06:31:00
10:45 PM,39.2,35.6,87,30.15,10.0,NNW,11.5,-,N/A,,Overcast,330,2013-04-25 06:45:00
10:53 PM,37.9,35.1,89,30.16,9.0,NW,8.1,-,N/A,,Overcast,320,2013-04-25 06:53:00
11:39 PM,35.6,33.8,93,30.14,1.8,NNW,11.5,-,N/A,,Overcast,330,2013-04-25 07:39:00
11:51 PM,35.6,33.8,93,30.13,0.5,NW,8.1,-,N/A,Fog,Fog,320,2013-04-25 07:51:00
11:53 PM,36.0,34.0,93,30.14,0.5,WNW,8.1,-,N/A,Fog,Fog,300,2013-04-25 07:53:00